Time,TemperatureF,DewpointF,PressureIn,WindDirection,WindDirectionDegrees,WindSpeedMPH,WindSpeedGustMPH,Humidity,HourlyPrecipIn,Conditions,Clouds,dailyrainin,SoftwareType,DateUTC
2013-05-12 00:01:00,64.1,58.5,29.95,WSW,248,7.2,7.2,82,0.00,,,0.00,WUHU216HW,2013-05-12 04:01:00,
2013-05-12 00:02:00,64.1,58.5,29.96,WSW,248,7.2,7.2,82,0.00,,,0.00,WUHU216HW,2013-05-12 04:02:00,
2013-05-12 00:03:00,64.1,58.5,29.95,WSW,248,7.2,7.2,82,0.00,,,0.00,WUHU216HW,2013-05-12 04:03:00,
2013-05-12 00:08:00,64.1,58.8,29.95,West,270,6.3,7.2,83,0.00,,,0.00,WUHU216HW,2013-05-12 04:08:00,
2013-05-12 00:13:00,63.9,58.3,29.96,WSW,248,6.5,7.2,82,0.00,,,0.00,WUHU216HW,2013-05-12 04:13:00,
2013-05-12 00:18:00,63.7,58.2,29.96,WSW,248,5.4,6.5,82,0.00,,,0.00,WUHU216HW,2013-05-12 04:18:00,
2013-05-12 00:23:00,63.7,58.4,29.96,WSW,248,6.3,6.5,83,0.00,,,0.00,WUHU216HW,2013-05-12 04:23:00,
2013-05-12 00:28:00,63.4,57.8,29.96,West,270,4.5,6.3,82,0.00,,,0.00,WUHU216HW,2013-05-12 04:28:00,
2013-05-12 00:33:00,63.2,57.9,29.96,SW,225,4.7,6.3,83,0.00,,,0.00,WUHU216HW,2013-05-12 04:33:00,
2013-05-12 00:38:00,63.2,57.9,29.95,WSW,248,2.9,4.7,83,0.00,,,0.00,WUHU216HW,2013-05-12 04:38:00,
2013-05-12 00:43:00,63.0,57.7,29.95,WSW,248,3.1,4.7,83,0.00,,,0.00,WUHU216HW,2013-05-12 04:43:00,
2013-05-12 00:48:00,63.0,57.7,29.95,West,270,4.0,4.0,83,0.00,,,0.00,WUHU216HW,2013-05-12 04:48:00,
2013-05-12 00:53:00,63.0,57.7,29.95,West,270,1.8,4.0,83,0.00,,,0.00,WUHU216HW,2013-05-12 04:53:00,
2013-05-12 00:59:00,62.8,57.5,29.95,WSW,248,2.7,4.0,83,0.00,,,0.00,WUHU216HW,2013-05-12 04:59:00,
2013-05-12 01:04:00,62.8,57.5,29.95,NW,315,1.8,2.7,83,0.00,,,0.00,WUHU216HW,2013-05-12 05:04:00,
2013-05-12 01:09:00,63.0,57.4,29.95,WSW,254,3.0,3.1,82,0.00,,,0.00,WUHU216HW,2013-05-12 05:09:00,
2013-05-12 01:14:00,62.8,57.3,29.94,West,270,2.5,3.1,82,0.00,,,0.00,WUHU216HW,2013-05-12 05:14:00,
2013-05-12 01:19:00,62.8,57.3,29.95,WSW,248,1.8,2.7,82,0.00,,,0.00,WUHU216HW,2013-05-12 05:19:00,
2013-05-12 01:24:00,62.8,57.3,29.95,SW,225,1.1,2.5,82,0.00,,,0.00,WUHU216HW,2013-05-12 05:24:00,
2013-05-12 01:29:00,62.8,57.3,29.95,SW,225,1.1,1.8,82,0.00,,,0.00,WUHU216HW,2013-05-12 05:29:00,
2013-05-12 01:34:00,62.6,56.7,29.95,NW,315,0.9,1.1,81,0.00,,,0.00,WUHU216HW,2013-05-12 05:34:00,
2013-05-12 01:39:00,62.6,56.7,29.95,NW,315,0.9,1.1,81,0.00,,,0.00,WUHU216HW,2013-05-12 05:39:00,
2013-05-12 01:44:00,62.5,56.5,29.95,NW,315,0.4,0.9,81,0.00,,,0.00,WUHU216HW,2013-05-12 05:44:00,
2013-05-12 01:49:00,62.5,56.5,29.94,North,0,4.3,4.3,81,0.00,,,0.00,WUHU216HW,2013-05-12 05:49:00,
2013-05-12 01:54:00,62.6,56.7,29.94,North,0,4.3,4.3,81,0.00,,,0.00,WUHU216HW,2013-05-12 05:54:00,
2013-05-12 01:59:00,62.5,56.2,29.94,ENE,68,0.0,4.3,80,0.00,,,0.00,WUHU216HW,2013-05-12 05:59:00,
2013-05-12 02:04:00,62.5,56.2,29.94,East,90,0.0,0.0,80,0.00,,,0.00,WUHU216HW,2013-05-12 06:04:00,
2013-05-12 02:09:00,62.3,56.3,29.95,NNW,338,1.3,1.3,81,0.00,,,0.00,WUHU216HW,2013-05-12 06:09:00,
2013-05-12 02:14:00,62.3,56.3,29.94,NW,324,1.2,1.3,81,0.00,,,0.00,WUHU216HW,2013-05-12 06:14:00,
2013-05-12 02:20:00,62.3,56.3,29.95,WNW,293,1.6,1.6,81,0.00,,,0.00,WUHU216HW,2013-05-12 06:20:00,
2013-05-12 02:25:00,62.3,56.0,29.94,WNW,294,1.6,1.6,80,0.00,,,0.00,WUHU216HW,2013-05-12 06:25:00,
2013-05-12 02:30:00,62.3,55.6,29.95,West,270,1.1,1.6,79,0.00,,,0.00,WUHU216HW,2013-05-12 06:30:00,
2013-05-12 02:35:00,62.3,55.3,29.95,NW,315,0.9,1.1,78,0.00,,,0.00,WUHU216HW,2013-05-12 06:35:00,
2013-05-12 02:40:00,62.5,54.7,29.95,NNW,338,2.0,2.0,76,0.00,,,0.00,WUHU216HW,2013-05-12 06:40:00,
2013-05-12 02:45:00,62.3,54.5,29.95,North,0,1.3,2.0,76,0.00,,,0.00,WUHU216HW,2013-05-12 06:45:00,
2013-05-12 02:50:00,62.3,54.2,29.95,WNW,293,1.6,2.0,75,0.00,,,0.00,WUHU216HW,2013-05-12 06:50:00,
2013-05-12 02:55:00,62.3,53.8,29.95,WNW,293,0.9,1.6,74,0.00,,,0.00,WUHU216HW,2013-05-12 06:55:00,
2013-05-12 03:00:00,61.9,53.2,29.95,NW,315,1.8,1.8,73,0.00,,,0.00,WUHU216HW,2013-05-12 07:00:00,
2013-05-12 03:05:00,61.9,53.2,29.94,NW,315,1.8,1.8,73,0.00,,,0.00,WUHU216HW,2013-05-12 07:05:00,
2013-05-12 03:10:00,61.9,53.2,29.94,NW,315,1.8,1.8,73,0.00,,,0.00,WUHU216HW,2013-05-12 07:10:00,
2013-05-12 03:15:00,61.7,53.0,29.94,North,0,2.0,2.0,73,0.00,,,0.00,WUHU216HW,2013-05-12 07:15:00,
2013-05-12 03:20:00,61.6,52.8,29.94,NNE,23,2.0,2.0,73,0.00,,,0.00,WUHU216HW,2013-05-12 07:20:00,
2013-05-12 03:25:00,61.6,52.8,29.95,NNE,23,2.0,2.0,73,0.00,,,0.00,WUHU216HW,2013-05-12 07:25:00,
2013-05-12 03:30:00,60.7,52.4,29.94,NNE,23,2.0,2.0,74,0.00,,,0.00,WUHU216HW,2013-05-12 07:30:00,
2013-05-12 03:35:00,60.3,52.0,29.94,NNE,23,0.9,2.0,74,0.00,,,0.00,WUHU216HW,2013-05-12 07:35:00,
2013-05-12 03:40:00,60.1,52.2,29.94,West,270,0.9,0.9,75,0.00,,,0.00,WUHU216HW,2013-05-12 07:40:00,
2013-05-12 03:45:00,59.9,52.0,29.94,NNW,338,1.6,1.6,75,0.00,,,0.00,WUHU216HW,2013-05-12 07:45:00,
2013-05-12 03:50:00,60.1,52.6,29.94,WSW,251,2.2,2.9,76,0.00,,,0.00,WUHU216HW,2013-05-12 07:50:00,
2013-05-12 03:55:00,60.1,52.2,29.94,NW,315,1.8,2.9,75,0.00,,,0.00,WUHU216HW,2013-05-12 07:55:00,
2013-05-12 04:01:00,60.1,51.1,29.94,WNW,293,2.2,2.2,72,0.00,,,0.00,WUHU216HW,2013-05-12 08:01:00,
2013-05-12 04:06:00,60.3,50.9,29.95,NW,315,1.3,2.2,71,0.00,,,0.00,WUHU216HW,2013-05-12 08:06:00,
2013-05-12 04:11:00,60.1,50.0,29.95,North,0,2.0,2.2,69,0.00,,,0.00,WUHU216HW,2013-05-12 08:11:00,
2013-05-12 04:16:00,59.8,49.6,29.95,West,270,1.3,2.0,69,0.00,,,0.00,WUHU216HW,2013-05-12 08:16:00,
2013-05-12 04:21:00,59.6,49.4,29.95,North,0,1.3,2.0,69,0.00,,,0.00,WUHU216HW,2013-05-12 08:21:00,
2013-05-12 04:26:00,59.4,49.2,29.95,NNE,23,1.1,2.5,69,0.00,,,0.00,WUHU216HW,2013-05-12 08:26:00,
2013-05-12 04:31:00,58.9,48.7,29.95,West,270,1.6,2.5,69,0.00,,,0.00,WUHU216HW,2013-05-12 08:31:00,
2013-05-12 04:36:00,58.7,48.5,29.95,NNW,338,1.1,1.6,69,0.00,,,0.00,WUHU216HW,2013-05-12 08:36:00,
2013-05-12 04:41:00,58.3,48.2,29.95,North,0,1.8,1.8,69,0.00,,,0.00,WUHU216HW,2013-05-12 08:41:00,
2013-05-12 04:46:00,58.0,48.2,29.96,NNW,338,0.9,1.8,70,0.00,,,0.00,WUHU216HW,2013-05-12 08:46:00,
2013-05-12 04:51:00,57.6,47.9,29.96,North,0,1.1,1.8,70,0.00,,,0.00,WUHU216HW,2013-05-12 08:51:00,
2013-05-12 04:56:00,56.9,47.9,29.96,North,0,1.6,2.0,72,0.00,,,0.00,WUHU216HW,2013-05-12 08:56:00,
2013-05-12 05:01:00,56.7,48.1,29.96,NNE,23,1.8,2.0,73,0.00,,,0.00,WUHU216HW,2013-05-12 09:01:00,
2013-05-12 05:06:00,56.5,48.0,29.96,NE,45,0.4,1.8,73,0.00,,,0.00,WUHU216HW,2013-05-12 09:06:00,
2013-05-12 05:11:00,56.2,48.0,29.96,NE,45,1.1,1.8,74,0.00,,,0.00,WUHU216HW,2013-05-12 09:11:00,
2013-05-12 05:16:00,55.8,47.6,29.96,West,270,0.7,1.1,74,0.00,,,0.00,WUHU216HW,2013-05-12 09:16:00,
2013-05-12 05:21:00,55.6,47.4,29.96,West,270,0.7,1.1,74,0.00,,,0.00,WUHU216HW,2013-05-12 09:21:00,
2013-05-12 05:26:00,55.4,47.3,29.96,NE,45,0.0,0.7,74,0.00,,,0.00,WUHU216HW,2013-05-12 09:26:00,
2013-05-12 05:32:00,54.9,47.1,29.96,West,270,0.0,0.0,75,0.00,,,0.00,WUHU216HW,2013-05-12 09:32:00,
2013-05-12 05:37:00,54.9,47.1,29.96,West,270,0.0,0.0,75,0.00,,,0.00,WUHU216HW,2013-05-12 09:37:00,
2013-05-12 05:42:00,54.5,46.8,29.97,SW,225,0.2,0.2,75,0.00,,,0.00,WUHU216HW,2013-05-12 09:42:00,
2013-05-12 05:47:00,54.4,46.6,29.97,WSW,248,0.4,0.4,75,0.00,,,0.00,WUHU216HW,2013-05-12 09:47:00,
2013-05-12 05:52:00,54.2,46.5,29.97,North,0,0.0,0.4,75,0.00,,,0.00,WUHU216HW,2013-05-12 09:52:00,
2013-05-12 05:57:00,54.2,46.5,29.98,ESE,113,0.0,0.4,75,0.00,,,0.00,WUHU216HW,2013-05-12 09:57:00,
2013-05-12 06:02:00,54.0,46.3,29.98,ENE,68,0.0,0.0,75,0.00,,,0.00,WUHU216HW,2013-05-12 10:02:00,
2013-05-12 06:07:00,53.6,45.9,29.98,ENE,68,0.0,0.0,75,0.00,,,0.00,WUHU216HW,2013-05-12 10:07:00,
2013-05-12 06:12:00,53.5,45.7,29.98,North,0,0.4,0.4,75,0.00,,,0.00,WUHU216HW,2013-05-12 10:12:00,
2013-05-12 06:17:00,52.9,45.5,29.98,NNW,338,0.0,0.4,76,0.00,,,0.00,WUHU216HW,2013-05-12 10:17:00,
2013-05-12 06:22:00,52.7,45.4,29.98,NNW,338,0.0,0.4,76,0.00,,,0.00,WUHU216HW,2013-05-12 10:22:00,
2013-05-12 06:27:00,52.7,45.7,29.99,NNW,338,0.2,0.2,77,0.00,,,0.00,WUHU216HW,2013-05-12 10:27:00,
2013-05-12 06:32:00,52.6,45.5,29.99,NNW,338,0.4,0.4,77,0.00,,,0.00,WUHU216HW,2013-05-12 10:32:00,
2013-05-12 06:37:00,52.2,45.2,29.99,NNW,338,0.4,0.4,77,0.00,,,0.00,WUHU216HW,2013-05-12 10:37:00,
2013-05-12 06:42:00,52.0,45.1,29.99,NNW,338,0.0,0.4,77,0.00,,,0.00,WUHU216HW,2013-05-12 10:42:00,
2013-05-12 06:47:00,51.8,45.2,29.99,NNW,338,0.0,0.0,78,0.00,,,0.00,WUHU216HW,2013-05-12 10:47:00,
2013-05-12 06:52:00,51.5,44.8,29.99,NNW,338,0.0,0.0,78,0.00,,,0.00,WUHU216HW,2013-05-12 10:52:00,
2013-05-12 06:57:00,51.3,44.6,29.99,NNW,338,0.0,0.0,78,0.00,,,0.00,WUHU216HW,2013-05-12 10:57:00,
2013-05-12 07:03:00,51.3,45.0,30.00,NNW,338,0.0,0.0,79,0.00,,,0.00,WUHU216HW,2013-05-12 11:03:00,
2013-05-12 07:07:00,51.5,45.2,30.00,NW,315,0.0,0.0,79,0.00,,,0.00,WUHU216HW,2013-05-12 11:07:00,
2013-05-12 07:12:00,51.5,45.2,30.00,West,270,0.2,0.2,79,0.00,,,0.00,WUHU216HW,2013-05-12 11:12:00,
2013-05-12 07:18:00,51.8,45.5,30.00,West,270,0.0,0.2,79,0.00,,,0.00,WUHU216HW,2013-05-12 11:18:00,
2013-05-12 07:23:00,52.0,45.7,30.01,WNW,293,0.0,0.2,79,0.00,,,0.00,WUHU216HW,2013-05-12 11:23:00,
2013-05-12 07:28:00,52.6,46.6,30.01,WNW,293,0.9,0.9,80,0.00,,,0.00,WUHU216HW,2013-05-12 11:28:00,
2013-05-12 07:33:00,52.9,47.0,30.01,WNW,300,0.4,0.9,80,0.00,,,0.00,WUHU216HW,2013-05-12 11:33:00,
2013-05-12 07:38:00,53.5,47.5,30.01,NW,315,0.4,0.9,80,0.00,,,0.00,WUHU216HW,2013-05-12 11:38:00,
2013-05-12 07:43:00,54.2,47.8,30.01,NNW,338,0.0,0.4,79,0.00,,,0.00,WUHU216HW,2013-05-12 11:43:00,
2013-05-12 07:48:00,54.7,48.0,30.01,WNW,293,1.1,1.1,78,0.00,,,0.00,WUHU216HW,2013-05-12 11:48:00,
2013-05-12 07:53:00,56.0,48.8,30.01,NW,324,1.6,2.0,77,0.00,,,0.00,WUHU216HW,2013-05-12 11:53:00,
2013-05-12 07:58:00,56.5,49.0,30.01,NW,315,1.6,2.0,76,0.00,,,0.00,WUHU216HW,2013-05-12 11:58:00,
2013-05-12 08:03:00,57.1,49.5,30.01,WSW,248,1.1,1.6,76,0.00,,,0.00,WUHU216HW,2013-05-12 12:03:00,
2013-05-12 08:08:00,57.6,49.3,30.02,WSW,248,4.5,4.5,74,0.00,,,0.00,WUHU216HW,2013-05-12 12:08:00,
2013-05-12 08:14:00,58.7,50.0,30.02,WSW,248,1.6,4.5,73,0.00,,,0.00,WUHU216HW,2013-05-12 12:14:00,
2013-05-12 08:19:00,62.5,52.2,30.02,NW,315,1.8,4.5,69,0.00,,,0.00,WUHU216HW,2013-05-12 12:19:00,
2013-05-12 08:24:00,63.5,52.4,30.02,WNW,293,2.5,2.5,67,0.00,,,0.00,WUHU216HW,2013-05-12 12:24:00,
2013-05-12 08:29:00,64.1,52.0,30.02,WSW,248,2.2,2.5,65,0.00,,,0.00,WUHU216HW,2013-05-12 12:29:00,
2013-05-12 08:34:00,65.0,52.9,30.02,SSW,203,2.2,2.5,65,0.00,,,0.00,WUHU216HW,2013-05-12 12:34:00,
2013-05-12 08:39:00,66.2,52.8,30.02,NNW,340,0.6,2.2,62,0.00,,,0.00,WUHU216HW,2013-05-12 12:39:00,
2013-05-12 08:44:00,66.1,52.3,30.02,West,270,1.3,1.3,61,0.00,,,0.00,WUHU216HW,2013-05-12 12:44:00,
2013-05-12 08:49:00,66.1,51.8,30.02,WNW,293,2.5,2.5,60,0.00,,,0.00,WUHU216HW,2013-05-12 12:49:00,
2013-05-12 08:54:00,65.5,51.3,30.03,WSW,251,3.7,4.0,60,0.00,,,0.00,WUHU216HW,2013-05-12 12:54:00,
2013-05-12 08:59:00,65.7,51.9,30.03,WSW,248,5.6,5.6,61,0.00,,,0.00,WUHU216HW,2013-05-12 12:59:00,
2013-05-12 09:05:00,65.7,51.9,30.03,WNW,293,4.3,5.6,61,0.00,,,0.00,WUHU216HW,2013-05-12 13:05:00,
2013-05-12 09:10:00,65.9,52.5,30.03,SW,225,3.6,5.6,62,0.00,,,0.00,WUHU216HW,2013-05-12 13:10:00,
2013-05-12 09:15:00,66.1,51.4,30.03,SW,225,2.5,4.3,59,0.00,,,0.00,WUHU216HW,2013-05-12 13:15:00,
2013-05-12 09:20:00,66.2,51.6,30.03,WSW,248,5.4,5.4,59,0.00,,,0.00,WUHU216HW,2013-05-12 13:20:00,
2013-05-12 09:25:00,66.2,51.6,30.03,North,0,1.8,5.4,59,0.00,,,0.00,WUHU216HW,2013-05-12 13:25:00,
2013-05-12 09:30:00,66.2,50.6,30.03,WSW,248,2.5,5.4,57,0.00,,,0.00,WUHU216HW,2013-05-12 13:30:00,
2013-05-12 09:35:00,67.0,51.7,30.03,NW,315,2.2,2.5,58,0.00,,,0.00,WUHU216HW,2013-05-12 13:35:00,
2013-05-12 09:40:00,67.0,51.2,30.02,North,353,0.5,2.5,57,0.00,,,0.00,WUHU216HW,2013-05-12 13:40:00,
2013-05-12 09:45:00,66.8,50.6,30.02,WNW,293,4.0,4.0,56,0.00,,,0.00,WUHU216HW,2013-05-12 13:45:00,
2013-05-12 09:51:00,67.0,50.8,30.03,North,359,4.6,4.7,56,0.00,,,0.00,WUHU216HW,2013-05-12 13:51:00,
2013-05-12 09:56:00,67.3,50.6,30.02,WSW,248,4.7,4.7,55,0.00,,,0.00,WUHU216HW,2013-05-12 13:56:00,
2013-05-12 10:01:00,67.5,48.8,30.02,North,0,4.9,4.9,51,0.00,,,0.00,WUHU216HW,2013-05-12 14:01:00,
2013-05-12 10:06:00,67.5,50.8,30.02,NNW,338,0.9,4.9,55,0.00,,,0.00,WUHU216HW,2013-05-12 14:06:00,
2013-05-12 10:11:00,68.0,50.8,30.02,North,0,1.8,4.9,54,0.00,,,0.00,WUHU216HW,2013-05-12 14:11:00,
2013-05-12 10:16:00,67.7,50.0,30.02,NNE,23,2.7,2.7,53,0.00,,,0.00,WUHU216HW,2013-05-12 14:16:00,
2013-05-12 10:21:00,67.9,49.2,30.02,WNW,293,3.9,4.5,51,0.00,,,0.00,WUHU216HW,2013-05-12 14:21:00,
2013-05-12 10:26:00,68.0,49.8,30.02,NW,315,3.1,4.5,52,0.00,,,0.00,WUHU216HW,2013-05-12 14:26:00,
2013-05-12 10:31:00,68.4,50.0,30.02,NNW,338,1.8,3.4,52,0.00,,,0.00,WUHU216HW,2013-05-12 14:31:00,
2013-05-12 10:36:00,69.5,51.1,30.02,NW,315,3.4,3.4,52,0.00,,,0.00,WUHU216HW,2013-05-12 14:36:00,
2013-05-12 10:41:00,69.3,50.0,30.02,North,0,3.6,3.6,50,0.00,,,0.00,WUHU216HW,2013-05-12 14:41:00,
2013-05-12 10:46:00,69.5,50.0,30.02,NW,310,2.5,3.6,50,0.00,,,0.00,WUHU216HW,2013-05-12 14:46:00,
2013-05-12 10:51:00,69.8,49.2,30.02,SW,225,1.8,3.6,48,0.00,,,0.00,WUHU216HW,2013-05-12 14:51:00,
2013-05-12 10:56:00,70.2,49.0,30.02,SW,225,1.6,1.8,47,0.00,,,0.00,WUHU216HW,2013-05-12 14:56:00,
2013-05-12 11:01:00,70.2,48.3,30.02,NW,315,3.1,3.1,46,0.00,,,0.00,WUHU216HW,2013-05-12 15:01:00,
2013-05-12 11:06:00,70.4,48.5,30.02,WNW,296,5.3,5.6,46,0.00,,,0.00,WUHU216HW,2013-05-12 15:06:00,
2013-05-12 11:11:00,70.6,46.9,30.02,NW,315,4.0,5.6,43,0.00,,,0.00,WUHU216HW,2013-05-12 15:11:00,
2013-05-12 11:16:00,70.6,48.1,30.02,NW,315,3.6,4.0,45,0.00,,,0.00,WUHU216HW,2013-05-12 15:16:00,
2013-05-12 11:21:00,70.9,49.0,30.02,West,270,8.5,8.5,46,0.00,,,0.00,WUHU216HW,2013-05-12 15:21:00,
2013-05-12 11:27:00,71.3,49.3,30.02,North,0,4.9,8.5,46,0.00,,,0.00,WUHU216HW,2013-05-12 15:27:00,
2013-05-12 11:32:00,71.3,47.0,30.02,NNE,20,2.8,8.5,42,0.00,,,0.00,WUHU216HW,2013-05-12 15:32:00,
2013-05-12 11:37:00,71.5,50.0,30.03,WSW,248,9.8,9.8,47,0.00,,,0.00,WUHU216HW,2013-05-12 15:37:00,
2013-05-12 11:42:00,71.8,49.8,30.03,WSW,248,5.4,9.8,46,0.00,,,0.00,WUHU216HW,2013-05-12 15:42:00,
2013-05-12 11:47:00,72.4,50.3,30.03,NW,315,4.0,9.8,46,0.00,,,0.00,WUHU216HW,2013-05-12 15:47:00,
2013-05-12 11:52:00,72.4,49.2,30.03,NNW,338,1.8,5.4,44,0.00,,,0.00,WUHU216HW,2013-05-12 15:52:00,
2013-05-12 11:57:00,72.4,50.3,30.03,ENE,68,3.6,4.0,46,0.00,,,0.00,WUHU216HW,2013-05-12 15:57:00,
2013-05-12 12:02:00,72.4,50.9,30.03,WSW,248,1.8,3.6,47,0.00,,,0.00,WUHU216HW,2013-05-12 16:02:00,
2013-05-12 12:07:00,72.4,49.2,30.03,North,358,3.9,4.0,44,0.00,,,0.00,WUHU216HW,2013-05-12 16:07:00,
2013-05-12 12:12:00,72.4,49.2,30.03,NW,315,2.5,4.0,44,0.00,,,0.00,WUHU216HW,2013-05-12 16:12:00,
2013-05-12 12:17:00,72.4,49.2,30.02,NNW,338,3.8,4.0,44,0.00,,,0.00,WUHU216HW,2013-05-12 16:17:00,
2013-05-12 12:22:00,72.0,47.6,30.02,NNW,338,3.8,4.0,42,0.00,,,0.00,WUHU216HW,2013-05-12 16:22:00,
2013-05-12 12:27:00,71.5,48.9,30.02,West,270,4.0,4.0,45,0.00,,,0.00,WUHU216HW,2013-05-12 16:27:00,
2013-05-12 12:32:00,71.6,50.9,30.02,WSW,248,7.6,7.6,48,0.00,,,0.00,WUHU216HW,2013-05-12 16:32:00,
2013-05-12 12:37:00,73.3,48.7,30.02,WSW,248,8.9,9.2,42,0.00,,,0.00,WUHU216HW,2013-05-12 16:37:00,
2013-05-12 12:42:00,72.0,48.8,30.02,North,4,1.4,9.2,44,0.00,,,0.00,WUHU216HW,2013-05-12 16:42:00,
2013-05-12 12:47:00,71.8,49.2,30.02,WSW,248,8.9,8.9,45,0.00,,,0.00,WUHU216HW,2013-05-12 16:47:00,
2013-05-12 12:52:00,72.4,51.5,30.02,NNE,23,1.1,8.9,48,0.00,,,0.00,WUHU216HW,2013-05-12 16:52:00,
2013-05-12 12:57:00,74.5,51.1,30.02,West,270,2.9,8.9,44,0.00,,,0.00,WUHU216HW,2013-05-12 16:57:00,
2013-05-12 13:02:00,74.5,51.1,30.02,West,270,4.0,4.0,44,0.00,,,0.00,WUHU216HW,2013-05-12 17:02:00,
2013-05-12 13:07:00,74.5,51.7,30.02,NW,315,1.1,4.0,45,0.00,,,0.00,WUHU216HW,2013-05-12 17:07:00,
2013-05-12 13:12:00,75.2,52.4,30.02,West,270,2.5,4.0,45,0.00,,,0.00,WUHU216HW,2013-05-12 17:12:00,
2013-05-12 13:17:00,76.0,52.4,30.02,WSW,248,0.4,2.5,44,0.00,,,0.00,WUHU216HW,2013-05-12 17:17:00,
2013-05-12 13:22:00,76.0,52.4,30.01,WSW,248,0.4,2.5,44,0.00,,,0.00,WUHU216HW,2013-05-12 17:22:00,
2013-05-12 13:27:00,76.0,51.2,30.01,SSE,158,2.9,2.9,42,0.00,,,0.00,WUHU216HW,2013-05-12 17:27:00,
2013-05-12 13:33:00,76.7,53.1,30.01,WSW,248,4.0,4.0,44,0.00,,,0.00,WUHU216HW,2013-05-12 17:33:00,
2013-05-12 13:38:00,75.8,50.4,30.01,NNE,23,4.9,4.9,41,0.00,,,0.00,WUHU216HW,2013-05-12 17:38:00,
2013-05-12 13:43:00,74.2,49.0,30.01,NNE,23,4.0,4.9,41,0.00,,,0.00,WUHU216HW,2013-05-12 17:43:00,
2013-05-12 13:48:00,73.1,49.8,30.02,WSW,248,4.7,4.9,44,0.00,,,0.00,WUHU216HW,2013-05-12 17:48:00,
2013-05-12 13:53:00,73.1,50.3,30.02,WSW,248,2.0,4.7,45,0.00,,,0.00,WUHU216HW,2013-05-12 17:53:00,
2013-05-12 13:58:00,72.7,50.1,30.01,North,353,2.3,4.7,45,0.00,,,0.00,WUHU216HW,2013-05-12 17:58:00,
2013-05-12 14:03:00,72.2,49.5,30.01,NNW,343,1.8,2.5,45,0.00,,,0.00,WUHU216HW,2013-05-12 18:03:00,
2013-05-12 14:08:00,72.2,49.0,30.01,NNW,338,4.3,4.3,44,0.00,,,0.00,WUHU216HW,2013-05-12 18:08:00,
2013-05-12 14:13:00,72.4,50.3,30.01,WSW,248,1.3,4.3,46,0.00,,,0.00,WUHU216HW,2013-05-12 18:13:00,
2013-05-12 14:18:00,73.6,50.2,30.01,NNW,338,3.8,4.3,44,0.00,,,0.00,WUHU216HW,2013-05-12 18:18:00,
2013-05-12 14:23:00,72.9,49.6,30.01,North,0,1.1,3.8,44,0.00,,,0.00,WUHU216HW,2013-05-12 18:23:00,
2013-05-12 14:28:00,73.1,49.8,30.00,North,0,4.5,4.5,44,0.00,,,0.00,WUHU216HW,2013-05-12 18:28:00,
2013-05-12 14:33:00,72.9,50.2,30.00,NNW,338,4.7,4.7,45,0.00,,,0.00,WUHU216HW,2013-05-12 18:33:00,
2013-05-12 14:38:00,73.1,49.1,30.00,NNE,23,4.0,4.7,43,0.00,,,0.00,WUHU216HW,2013-05-12 18:38:00,
2013-05-12 14:43:00,73.8,50.4,30.00,NW,315,5.6,5.6,44,0.00,,,0.00,WUHU216HW,2013-05-12 18:43:00,
2013-05-12 14:48:00,73.8,50.4,30.00,NW,315,5.6,5.6,44,0.00,,,0.00,WUHU216HW,2013-05-12 18:48:00,
2013-05-12 14:53:00,72.9,49.6,30.00,North,0,1.3,5.6,44,0.00,,,0.00,WUHU216HW,2013-05-12 18:53:00,
2013-05-12 14:58:00,72.9,49.6,30.00,North,0,1.3,5.6,44,0.00,,,0.00,WUHU216HW,2013-05-12 18:58:00,
2013-05-12 15:04:00,73.8,49.9,29.99,NNW,338,3.4,3.4,43,0.00,,,0.00,WUHU216HW,2013-05-12 19:04:00,
2013-05-12 15:09:00,75.1,51.0,29.99,NNW,332,2.7,3.4,43,0.00,,,0.00,WUHU216HW,2013-05-12 19:09:00,
2013-05-12 15:14:00,75.2,50.6,29.99,WSW,248,2.0,3.4,42,0.00,,,0.00,WUHU216HW,2013-05-12 19:14:00,
2013-05-12 15:19:00,75.1,49.8,29.99,WSW,258,1.7,2.0,41,0.00,,,0.00,WUHU216HW,2013-05-12 19:19:00,
2013-05-12 15:24:00,75.2,51.1,29.99,NNE,27,0.5,2.0,43,0.00,,,0.00,WUHU216HW,2013-05-12 19:24:00,
2013-05-12 15:29:00,75.2,50.0,29.99,West,270,1.1,1.1,41,0.00,,,0.00,WUHU216HW,2013-05-12 19:29:00,
2013-05-12 15:34:00,74.7,48.9,29.99,NE,45,2.7,2.7,40,0.00,,,0.00,WUHU216HW,2013-05-12 19:34:00,
2013-05-12 15:39:00,74.7,48.9,29.99,North,0,2.2,2.7,40,0.00,,,0.00,WUHU216HW,2013-05-12 19:39:00,
2013-05-12 15:44:00,75.2,48.6,29.99,NW,314,2.8,3.4,39,0.00,,,0.00,WUHU216HW,2013-05-12 19:44:00,
2013-05-12 15:49:00,75.4,49.5,29.99,West,262,1.9,3.4,40,0.00,,,0.00,WUHU216HW,2013-05-12 19:49:00,
2013-05-12 15:54:00,76.5,50.5,29.99,NNE,23,2.5,2.5,40,0.00,,,0.00,WUHU216HW,2013-05-12 19:54:00,
2013-05-12 15:59:00,76.7,46.8,30.00,ENE,68,3.4,3.4,35,0.00,,,0.00,WUHU216HW,2013-05-12 19:59:00,
2013-05-12 16:04:00,76.3,45.7,29.99,NE,45,6.9,6.9,34,0.00,,,0.00,WUHU216HW,2013-05-12 20:04:00,
2013-05-12 16:09:00,75.4,45.7,29.99,NNW,338,2.0,6.9,35,0.00,,,0.00,WUHU216HW,2013-05-12 20:09:00,
2013-05-12 16:14:00,75.8,46.0,29.99,East,90,3.1,6.9,35,0.00,,,0.00,WUHU216HW,2013-05-12 20:14:00,
2013-05-12 16:20:00,75.6,45.1,29.99,NE,45,5.4,5.4,34,0.00,,,0.00,WUHU216HW,2013-05-12 20:20:00,
2013-05-12 16:25:00,74.9,44.5,29.99,NNE,23,6.3,6.3,34,0.00,,,0.00,WUHU216HW,2013-05-12 20:25:00,
2013-05-12 16:30:00,73.8,45.7,29.99,North,0,4.8,6.3,37,0.00,,,0.00,WUHU216HW,2013-05-12 20:30:00,
2013-05-12 16:35:00,73.6,42.6,29.99,North,0,5.4,6.3,33,0.00,,,0.00,WUHU216HW,2013-05-12 20:35:00,
2013-05-12 16:40:00,73.1,43.7,29.99,NNW,331,3.1,5.4,35,0.00,,,0.00,WUHU216HW,2013-05-12 20:40:00,
2013-05-12 16:45:00,73.1,43.7,29.99,NW,315,2.5,5.4,35,0.00,,,0.00,WUHU216HW,2013-05-12 20:45:00,
2013-05-12 16:50:00,73.1,38.9,29.99,WNW,293,3.9,5.4,29,0.00,,,0.00,WUHU216HW,2013-05-12 20:50:00,
2013-05-12 16:55:00,73.3,38.0,29.99,North,0,6.7,6.7,28,0.00,,,0.00,WUHU216HW,2013-05-12 20:55:00,
2013-05-12 17:00:00,73.1,37.8,29.99,NNW,347,3.4,6.7,28,0.00,,,0.00,WUHU216HW,2013-05-12 21:00:00,
2013-05-12 17:05:00,72.9,36.6,29.99,NNE,23,4.7,6.7,27,0.00,,,0.00,WUHU216HW,2013-05-12 21:05:00,
2013-05-12 17:10:00,72.7,37.5,30.00,NE,45,3.6,4.7,28,0.00,,,0.00,WUHU216HW,2013-05-12 21:10:00,
2013-05-12 17:15:00,72.9,36.6,30.00,NNE,23,3.4,4.7,27,0.00,,,0.00,WUHU216HW,2013-05-12 21:15:00,
2013-05-12 17:20:00,72.7,35.5,30.00,NW,315,5.8,5.8,26,0.00,,,0.00,WUHU216HW,2013-05-12 21:20:00,
2013-05-12 17:25:00,72.5,37.4,30.01,NE,45,3.1,5.8,28,0.00,,,0.00,WUHU216HW,2013-05-12 21:25:00,
2013-05-12 17:30:00,72.7,33.5,30.01,North,0,9.2,9.2,24,0.00,,,0.00,WUHU216HW,2013-05-12 21:30:00,
2013-05-12 17:35:00,71.6,34.6,30.01,WNW,293,1.8,9.2,26,0.00,,,0.00,WUHU216HW,2013-05-12 21:35:00,
2013-05-12 17:40:00,71.6,34.6,30.01,NE,45,4.5,9.2,26,0.00,,,0.00,WUHU216HW,2013-05-12 21:40:00,
2013-05-12 17:45:00,71.5,32.4,30.01,NW,315,1.8,4.5,24,0.00,,,0.00,WUHU216HW,2013-05-12 21:45:00,
2013-05-12 17:50:00,71.3,33.3,30.01,NNE,23,4.3,4.5,25,0.00,,,0.00,WUHU216HW,2013-05-12 21:50:00,
2013-05-12 17:55:00,71.1,32.1,30.01,North,0,4.7,4.7,24,0.00,,,0.00,WUHU216HW,2013-05-12 21:55:00,
2013-05-12 18:01:00,70.9,31.0,30.01,NNW,338,8.1,8.1,23,0.00,,,0.00,WUHU216HW,2013-05-12 22:01:00,
2013-05-12 18:06:00,70.7,31.8,30.01,NNW,338,8.1,8.1,24,0.00,,,0.00,WUHU216HW,2013-05-12 22:06:00,
2013-05-12 18:11:00,70.6,31.7,30.02,North,0,3.8,8.1,24,0.00,,,0.00,WUHU216HW,2013-05-12 22:11:00,
2013-05-12 18:16:00,70.2,31.3,30.02,SSW,203,1.1,8.1,24,0.00,,,0.00,WUHU216HW,2013-05-12 22:16:00,
2013-05-12 18:21:00,70.0,31.1,30.02,SW,225,5.4,5.4,24,0.00,,,0.00,WUHU216HW,2013-05-12 22:21:00,
2013-05-12 18:26:00,69.8,31.1,30.01,NNE,23,7.6,7.6,24,0.00,,,0.00,WUHU216HW,2013-05-12 22:26:00,
2013-05-12 18:31:00,69.7,30.9,30.02,NE,45,4.9,7.6,24,0.00,,,0.00,WUHU216HW,2013-05-12 22:31:00,
2013-05-12 18:36:00,69.3,29.6,30.02,North,0,2.2,7.6,23,0.00,,,0.00,WUHU216HW,2013-05-12 22:36:00,
2013-05-12 18:41:00,69.1,30.4,30.02,NNW,338,4.7,4.9,24,0.00,,,0.00,WUHU216HW,2013-05-12 22:41:00,
2013-05-12 18:46:00,69.1,29.4,30.03,NNE,23,7.8,7.8,23,0.00,,,0.00,WUHU216HW,2013-05-12 22:46:00,
2013-05-12 18:51:00,69.8,30.1,30.03,NNW,338,7.8,7.8,23,0.00,,,0.00,WUHU216HW,2013-05-12 22:51:00,
2013-05-12 18:56:00,69.3,30.6,30.03,NW,318,4.1,7.8,24,0.00,,,0.00,WUHU216HW,2013-05-12 22:56:00,
2013-05-12 19:01:00,69.5,31.8,30.03,WSW,248,4.7,7.8,25,0.00,,,0.00,WUHU216HW,2013-05-12 23:01:00,
2013-05-12 19:07:00,70.7,31.8,30.04,NE,45,4.9,4.9,24,0.00,,,0.00,WUHU216HW,2013-05-12 23:07:00,
2013-05-12 19:12:00,70.7,31.8,30.04,NE,45,2.0,4.9,24,0.00,,,0.00,WUHU216HW,2013-05-12 23:12:00,
2013-05-12 19:17:00,68.9,31.3,30.04,NW,310,3.9,4.9,25,0.00,,,0.00,WUHU216HW,2013-05-12 23:17:00,
2013-05-12 19:22:00,67.9,30.3,30.04,NE,42,1.9,4.7,25,0.00,,,0.00,WUHU216HW,2013-05-12 23:22:00,
2013-05-12 19:27:00,67.5,31.1,30.04,NNE,23,3.4,3.4,26,0.00,,,0.00,WUHU216HW,2013-05-12 23:27:00,
2013-05-12 19:32:00,67.0,30.6,30.04,NNE,23,4.3,4.3,26,0.00,,,0.00,WUHU216HW,2013-05-12 23:32:00,
2013-05-12 19:37:00,66.6,30.3,30.05,ESE,113,0.9,4.3,26,0.00,,,0.00,WUHU216HW,2013-05-12 23:37:00,
2013-05-12 19:42:00,66.1,29.8,30.05,NNE,23,3.6,4.3,26,0.00,,,0.00,WUHU216HW,2013-05-12 23:42:00,
2013-05-12 19:47:00,65.3,32.2,30.04,NNW,328,0.8,3.6,29,0.00,,,0.00,WUHU216HW,2013-05-12 23:47:00,
2013-05-12 19:52:00,65.2,33.0,30.05,NW,315,0.7,3.6,30,0.00,,,0.00,WUHU216HW,2013-05-12 23:52:00,
2013-05-12 19:57:00,64.6,32.6,30.05,South,180,1.6,1.6,30,0.00,,,0.00,WUHU216HW,2013-05-12 23:57:00,
2013-05-12 20:02:00,64.4,32.4,30.06,NW,315,1.3,1.6,30,0.00,,,0.00,WUHU216HW,2013-05-13 00:02:00,
2013-05-12 20:07:00,64.1,32.8,30.06,WNW,293,2.0,2.0,31,0.00,,,0.00,WUHU216HW,2013-05-13 00:07:00,
2013-05-12 20:12:00,63.5,33.0,30.06,North,0,2.5,2.5,32,0.00,,,0.00,WUHU216HW,2013-05-13 00:12:00,
2013-05-12 20:17:00,63.0,32.6,30.06,NNW,345,1.5,2.5,32,0.00,,,0.00,WUHU216HW,2013-05-13 00:17:00,
2013-05-12 20:22:00,62.6,32.9,30.06,West,270,5.6,5.6,33,0.00,,,0.00,WUHU216HW,2013-05-13 00:22:00,
2013-05-12 20:27:00,62.5,32.8,30.06,NW,315,2.5,5.6,33,0.00,,,0.00,WUHU216HW,2013-05-13 00:27:00,
2013-05-12 20:32:00,62.3,32.6,30.06,NNW,338,3.1,5.6,33,0.00,,,0.00,WUHU216HW,2013-05-13 00:32:00,
2013-05-12 20:37:00,61.9,32.3,30.07,NE,38,0.9,3.1,33,0.00,,,0.00,WUHU216HW,2013-05-13 00:37:00,
2013-05-12 20:42:00,61.6,32.0,30.07,ENE,68,2.2,2.2,33,0.00,,,0.00,WUHU216HW,2013-05-13 00:42:00,
2013-05-12 20:47:00,61.2,32.4,30.07,NNW,338,2.7,2.7,34,0.00,,,0.00,WUHU216HW,2013-05-13 00:47:00,
2013-05-12 20:52:00,61.0,32.2,30.07,NNW,338,0.4,2.7,34,0.00,,,0.00,WUHU216HW,2013-05-13 00:52:00,
2013-05-12 20:57:00,60.8,33.5,30.07,NNW,338,1.1,2.7,36,0.00,,,0.00,WUHU216HW,2013-05-13 00:57:00,
2013-05-12 21:02:00,60.5,33.2,30.07,North,0,2.0,2.0,36,0.00,,,0.00,WUHU216HW,2013-05-13 01:02:00,
2013-05-12 21:07:00,59.9,33.4,30.07,WNW,299,2.2,3.1,37,0.00,,,0.00,WUHU216HW,2013-05-13 01:07:00,
2013-05-12 21:13:00,59.8,33.9,30.07,NNE,23,1.1,3.1,38,0.00,,,0.00,WUHU216HW,2013-05-13 01:13:00,
2013-05-12 21:18:00,59.4,33.7,30.08,WNW,297,0.5,1.1,38,0.00,,,0.00,WUHU216HW,2013-05-13 01:18:00,
2013-05-12 21:23:00,59.0,34.7,30.08,NNW,338,1.3,2.0,40,0.00,,,0.00,WUHU216HW,2013-05-13 01:23:00,
2013-05-12 21:28:00,58.9,34.6,30.08,West,270,0.4,2.0,40,0.00,,,0.00,WUHU216HW,2013-05-13 01:28:00,
2013-05-12 21:33:00,58.7,34.4,30.08,NNW,338,0.4,1.3,40,0.00,,,0.00,WUHU216HW,2013-05-13 01:33:00,
2013-05-12 21:38:00,58.1,34.5,30.09,NW,315,1.1,1.1,41,0.00,,,0.00,WUHU216HW,2013-05-13 01:38:00,
2013-05-12 21:43:00,58.0,34.9,30.09,WNW,293,1.1,1.1,42,0.00,,,0.00,WUHU216HW,2013-05-13 01:43:00,
2013-05-12 21:48:00,58.0,35.5,30.09,NNE,23,1.8,1.8,43,0.00,,,0.00,WUHU216HW,2013-05-13 01:48:00,
2013-05-12 21:53:00,57.8,35.4,30.10,North,0,2.7,2.7,43,0.00,,,0.00,WUHU216HW,2013-05-13 01:53:00,
2013-05-12 21:58:00,57.6,35.2,30.10,NE,38,1.7,2.7,43,0.00,,,0.00,WUHU216HW,2013-05-13 01:58:00,
2013-05-12 22:03:00,57.4,35.0,30.10,NNE,23,0.7,2.7,43,0.00,,,0.00,WUHU216HW,2013-05-13 02:03:00,
2013-05-12 22:08:00,57.4,35.6,30.10,NNE,23,4.0,4.0,44,0.00,,,0.00,WUHU216HW,2013-05-13 02:08:00,
2013-05-12 22:13:00,57.1,35.3,30.10,NNE,14,1.9,4.0,44,0.00,,,0.00,WUHU216HW,2013-05-13 02:13:00,
2013-05-12 22:18:00,56.9,35.1,30.10,East,90,0.4,2.9,44,0.00,,,0.00,WUHU216HW,2013-05-13 02:18:00,
2013-05-12 22:23:00,56.9,35.1,30.11,NNW,338,5.4,5.4,44,0.00,,,0.00,WUHU216HW,2013-05-13 02:23:00,
2013-05-12 22:28:00,56.9,35.1,30.10,West,270,2.9,5.4,44,0.00,,,0.00,WUHU216HW,2013-05-13 02:28:00,
2013-05-12 22:33:00,56.9,35.1,30.10,NNE,23,1.8,5.4,44,0.00,,,0.00,WUHU216HW,2013-05-13 02:33:00,
2013-05-12 22:39:00,56.5,35.3,30.10,NE,35,0.7,2.9,45,0.00,,,0.00,WUHU216HW,2013-05-13 02:39:00,
2013-05-12 22:44:00,56.5,35.3,30.11,North,0,0.4,1.8,45,0.00,,,0.00,WUHU216HW,2013-05-13 02:44:00,
2013-05-12 22:49:00,56.3,35.1,30.11,NNE,23,0.9,0.9,45,0.00,,,0.00,WUHU216HW,2013-05-13 02:49:00,
2013-05-12 22:54:00,56.0,35.4,30.11,NE,45,1.4,1.6,46,0.00,,,0.00,WUHU216HW,2013-05-13 02:54:00,
2013-05-12 22:59:00,55.8,35.2,30.11,NW,315,1.1,1.6,46,0.00,,,0.00,WUHU216HW,2013-05-13 02:59:00,
2013-05-12 23:04:00,55.8,34.7,30.11,East,90,0.0,1.1,45,0.00,,,0.00,WUHU216HW,2013-05-13 03:04:00,
2013-05-12 23:09:00,55.4,34.3,30.11,WSW,244,0.4,1.1,45,0.00,,,0.00,WUHU216HW,2013-05-13 03:09:00,
2013-05-12 23:14:00,55.1,34.6,30.11,North,0,2.0,2.0,46,0.00,,,0.00,WUHU216HW,2013-05-13 03:14:00,
2013-05-12 23:19:00,54.9,34.4,30.12,North,352,1.6,2.0,46,0.00,,,0.00,WUHU216HW,2013-05-13 03:19:00,
2013-05-12 23:24:00,54.5,34.0,30.12,West,270,1.3,2.0,46,0.00,,,0.00,WUHU216HW,2013-05-13 03:24:00,
2013-05-12 23:29:00,54.2,33.8,30.12,West,279,0.8,1.3,46,0.00,,,0.00,WUHU216HW,2013-05-13 03:29:00,
2013-05-12 23:34:00,54.0,33.6,30.12,NNE,23,0.9,1.3,46,0.00,,,0.00,WUHU216HW,2013-05-13 03:34:00,
2013-05-12 23:39:00,53.6,33.2,30.12,SSW,203,0.0,0.9,46,0.00,,,0.00,WUHU216HW,2013-05-13 03:39:00,
2013-05-12 23:45:00,53.3,33.5,30.12,NW,315,0.0,0.9,47,0.00,,,0.00,WUHU216HW,2013-05-13 03:45:00,
2013-05-12 23:50:00,52.7,33.6,30.12,NW,315,0.0,0.0,48,0.00,,,0.00,WUHU216HW,2013-05-13 03:50:00,
2013-05-12 23:55:00,52.0,33.5,30.12,East,90,0.4,0.4,49,0.00,,,0.00,WUHU216HW,2013-05-13 03:55:00,